TimeGMT,TemperatureF,Dew PointF,Humidity,Sea Level PressureIn,VisibilityMPH,Wind Direction,Wind SpeedMPH,Gust SpeedMPH,PrecipitationIn,Events,Conditions,WindDirDegrees,DateUTC
12:50 AM,41.0,41.0,100,29.24,2.5,ENE,11.5,-,N/A,Fog,Fog,70,2013-01-19 00:50:00
1:50 AM,41.0,41.0,100,29.24,2.5,East,16.1,-,N/A,Fog,Fog,90,2013-01-19 01:50:00
2:50 AM,41,40,92,29.27,3,East,13.8,,,Fog,Light Fog,80,2013-01-19 02:50:00
2:50 AM,41.0,39.2,93,29.24,3.1,East,13.8,-,N/A,,Haze,80,2013-01-19 02:50:00
3:50 AM,41.0,39.2,93,29.27,3.1,East,13.8,-,N/A,,Haze,90,2013-01-19 03:50:00
4:50 AM,41.0,39.2,93,29.27,5.0,East,16.1,-,N/A,,Haze,80,2013-01-19 04:50:00
5:50 AM,40,38,91,29.31,5,East,16.1,,,,Haze,80,2013-01-19 05:50:00
5:50 AM,41.0,39.2,93,29.30,5.0,East,16.1,-,N/A,,Haze,80,2013-01-19 05:50:00
6:50 AM,39.2,37.4,93,29.30,3.1,ENE,13.8,-,N/A,,Haze,70,2013-01-19 06:50:00
7:50 AM,39.2,37.4,93,29.33,2.5,East,16.1,-,N/A,,Haze,90,2013-01-19 07:50:00
8:50 AM,39,37,91,29.36,5,East,17.3,,,,Haze,80,2013-01-19 08:50:00
8:50 AM,39.2,37.4,93,29.33,5.0,East,17.3,-,N/A,,Haze,80,2013-01-19 08:50:00
9:50 AM,37.4,35.6,93,29.36,5.0,ENE,18.4,-,N/A,,Haze,70,2013-01-19 09:50:00
10:50 AM,37.4,33.8,87,29.36,6.2,ENE,15.0,-,N/A,,Haze,70,2013-01-19 10:50:00
11:50 AM,38,35,84,29.39,6,ENE,15.0,,,,Haze,60,2013-01-19 11:50:00
11:50 AM,37.4,35.6,93,29.36,6.2,ENE,15.0,-,N/A,,Haze,60,2013-01-19 11:50:00
12:50 PM,37.4,33.8,87,29.39,6.2,ENE,15.0,-,N/A,,Haze,60,2013-01-19 12:50:00
1:50 PM,39.2,35.6,87,29.39,6.2,NE,15.0,-,N/A,,Haze,50,2013-01-19 13:50:00
2:50 PM,36,32,81,29.43,9,ENE,11.5,,,,Haze,60,2013-01-19 14:50:00
2:50 PM,35.6,32.0,87,29.42,6.2,ENE,11.5,-,N/A,,Haze,60,2013-01-19 14:50:00
3:50 PM,35.6,32.0,87,29.42,6.2,NE,12.7,-,N/A,,Haze,50,2013-01-19 15:50:00
4:50 PM,35.6,32.0,87,29.44,6.2,NE,6.9,-,N/A,,Haze,40,2013-01-19 16:50:00
5:50 PM,34,32,87,29.48,7,NE,8.1,,,,Haze,50,2013-01-19 17:50:00
5:50 PM,33.8,32.0,93,29.44,6.2,NE,8.1,-,N/A,,Haze,50,2013-01-19 17:50:00
6:50 PM,32.0,30.2,93,29.47,3.7,ENE,8.1,-,N/A,,Haze,60,2013-01-19 18:50:00
7:50 PM,32.0,30.2,93,29.47,3.7,ENE,8.1,-,N/A,,Haze,70,2013-01-19 19:50:00
8:50 PM,33,30,86,29.50,3,ENE,9.2,,,,Haze,60,2013-01-19 20:50:00
8:50 PM,32.0,30.2,93,29.47,3.1,ENE,9.2,-,N/A,,Haze,60,2013-01-19 20:50:00
9:50 PM,33.8,30.2,87,29.47,3.7,NE,6.9,-,N/A,,Haze,50,2013-01-19 21:50:00
10:50 PM,33.8,32.0,93,29.47,3.7,NE,9.2,-,N/A,,Haze,40,2013-01-19 22:50:00
11:50 PM,33,31,89,29.50,5,NE,11.5,,,,Haze,50,2013-01-19 23:50:00
11:50 PM,33.8,30.2,87,29.47,5.0,NE,11.5,-,N/A,,Haze,50,2013-01-19 23:50:00